STARLINK-4720, 53800

Orbit data source: Space-Track

STARLINK-4720, 53800 is a payload satellite owned by SpaceX/Seattle (US) in LEO that was launched on Sun, 11 Sep 2022 UTC via an FALCON 9 launch vehicle from the Air Force Eastern Test Range (AFETR). Payload-class satellites include a variety of spacecraft equipped with specific instruments for various scientific and technological missions. These include communications satellites like Starlink; space stations such as the ISS; scientific satellites like the Hubble; Earth observation satellites from companies like Planet Labs, Umbra, and HawkEye 360; GPS; miniature CubeSats for education and research; and military/defense satellites.

Loading next visibility...
Identifier
53800, 2022-111AD
Orbit
LEO
Last TLE update
11 hours ago
Origin
Manufacturer
SpaceX/Seattle
Mission
Operational Commercial Communications
Bus & Motor
STARLINK, Unknown motor
Mass
305 kg wet, ~290 kg dry
Launch date (UTC)
2022-09-11 (3 years ago)
Launch vehicle
FALCON 9
Launch site
Air Force Eastern Test Range (AFETR)
Object type
Payload
Rocket body
Debris
Shape & HBR
Box + 1 Pan, 8.86 m
Radar Cross Section
13.562 m², Large (>1 m²)

Expand to show TLE details & history

TLE from 11 hours ago
0 STARLINK-4720
1 53800U 22111AD  25182.61651171 -.00000469  00000-0 -11414-4 0  9995
2 53800  53.2182 311.1769 0001178  92.3837 267.7290 15.08838560155914
Epoch: 2025-07-01T14:47Z
TLE epoch observation values (Epoch: 2025-07-01T14:47:46.611Z)
Latitude
-0.00004°
Longitude
169.32325°
Altitude
540.678 km
Speed
7.593 km/s
True Right ascension
20h 44m 42s
True Declination
0° 00' 00"
Sunlit
Object was in full shadow at epoch
Visualization orbit readout
Latitude
45.13482°
Longitude
-144.47798°
Altitude
543.783 km
Speed
7.596 km/s
Apparent Right ascension
00h 51m 15s
Apparent Declination
4° 55' 16"
Sunlit
Object is in daylight
Visualization observer readout
Local Sidereal Time
13:52:54
Azimuth
21.216° NNE
Elevation
-42.971°
Doppler factor
1
Orbital elements
Apogee altitude
540.808 km
Perigee altitude
539.178 km
Semi-major axis
6,918.13 km
Eccentricity
0.00012
Inclination
53.2182°
RAAN
311.1769°
Arg. of periapsis
92.3837°
True anomaly
Unknown
Mean anomaly
267.729°
Eccentric anomaly
Unknown
Mean motion
3.7719 °/min
Orbital period
95.44 mins
BSTAR
-0.000011414
Loading maneuver chart data...
Loading SW <> Apogee altitude chart data...
Loading historical data...
Loading historical data...
Loading historical data...
Loading historical data...
Loading historical data...
Loading historical data...
Loading historical data...

STARLINK-4720 Visibility forecast

Observer location: undefined°, undefined°

Span
Click to sort rows by Start time (UTC) header in descending order
Start Az.
Max El. time (UTC)
Max El. Az.
Max El.
End time (UTC)
End Az.
4 mins2025-07-02 10:01:52.217Z159.916° S2025-07-02 10:03:52.217Z124.519° SE17.37°2025-07-02 10:05:52.217Z90.833° ESE
6 mins2025-07-02 11:39:52.217Z246.189° WSW2025-07-02 11:42:52.217Z335.457° NNW40.786°2025-07-02 11:45:52.217Z41.329° NE
5 mins2025-07-02 16:41:52.217Z343.115° N2025-07-02 16:43:52.217Z23.476° NE22.661°2025-07-02 16:46:52.217Z77.865° E
6 mins2025-07-02 18:20:52.217Z300.678° NW2025-07-02 18:23:52.217Z196.861° SSW41.176°2025-07-02 18:26:52.217Z144.194° SSE
|